Location: Slanting_Bridge
(35.6330°N, 80.9830°W)
Time: 01:46:57
(UTC-04:00)

Hamsat - Visible Passes

Search period start: 27 June 2016 00:00
Search period end: 07 July 2016 00:00
Orbit: 587 x 619 km, 97.6° (Epoch: 26 June)

Date Brightness Start Highest point End Pass type
(mag) Time Alt. Az. Time Alt. Az. Time Alt. Az.
27 Jun ? 05:02:41 10° NE 05:05:28 17° E 05:08:13 10° SE visible
28 Jun ? 05:14:12 10° NE 05:17:37 23° E 05:20:59 10° SSE visible
29 Jun ? 05:25:56 10° NNE 05:29:45 32° E 05:33:31 10° SSE visible
30 Jun ? 05:37:47 10° NNE 05:41:52 45° E 05:45:53 10° S visible
04 Jul ? 04:52:17 10° ENE 04:54:07 12° E 04:55:55 10° ESE visible
05 Jul ? 05:03:26 10° NE 05:06:16 17° E 05:09:05 10° SE visible
06 Jul ? 05:14:58 10° NE 05:18:25 24° E 05:21:49 10° SSE visible
